Weather History for Roanoke, VA

Change the Weather History Date:

Monday, January 6, 2014

  Actual Average Record
Temperature  
Mean Temperature 25 °F 36 °F  
Max Temperature 46 °F 45 °F 72 °F (1950)
Min Temperature 4 °F 28 °F 2 °F (1924)
Degree Days  
Heating Degree Days 40 29  
Month to date heating degree days 211 171  
Since 1 July heating degree days 1778 1781  
Cooling Degree Days 0 0  
Month to date cooling degree days 0 0  
Year to date cooling degree days 0 0  
Moisture  
Dew Point 18 °F    
Average Humidity 67    
Maximum Humidity 100    
Minimum Humidity 34    
Precipitation  
Precipitation 0.05 in 0.10 in 1.13 in (1936)
Month to date precipitation 0.27 0.55  
Year to date precipitation 0.27 0.55  
Snow  
Snow T in - - ()
Month to date snowfall T  
Since 1 July snowfall T  
Snow Depth 0.00 in    
Sea Level Pressure  
Sea Level Pressure 29.83 in    
Wind  
Wind Speed 20 mph (WNW)    
Max Wind Speed 33 mph    
Max Gust Speed 45 mph    
Visibility 10 miles    
Events Rain    
T = Trace of Precipitation, MM = Missing Value Source: NWS Daily Summary

Daily Weather History Graph

Daily Weather History Graph

Search for Another Location

Airport:

Trip Planner

Search our weather history database for the weather conditions in past years. The results will help you decide how hot, cold, wet, or windy it might be!

Date:

Astronomy

Jan. 06, 2014 Rise Set
Actual Time 7:34 AM EST 5:17 PM EST
Civil Twilight 7:05 AM EST 5:46 PM EST
Nautical Twilight 6:33 AM EST 6:18 PM EST
Astronomical Twilight 6:01 AM EST 6:50 PM EST
Moon 10:57 AM EST (1/6) 11:40 PM EST (1/6)
Length of Visible Light 10h 40m
Length of Day
9h 42m
Waxing Crescent, 34% of the Moon is Illuminated
Jan 6
Waxing Crescent
Jan 7
First Quarter
Jan 15
Full
Jan 24
Last Quarter
Jan 30
New

Hourly Weather History & Observations

Time (EST) Temp. Windchill Dew Point Humidity Pressure Visibility Wind Dir Wind Speed Gust Speed Precip Events Conditions
12:19 AM 37.4 °F - 37.4 °F 100% 29.69 in 7.0 mi Calm Calm - N/A   Overcast
12:39 AM 39.2 °F 35.0 °F 37.4 °F 93% 29.67 in 8.0 mi ESE 5.8 mph - N/A   Overcast
12:49 AM 39.2 °F 35.0 °F 37.4 °F 93% 29.67 in 8.0 mi ESE 5.8 mph - N/A   Overcast
12:54 AM 39.0 °F 34.8 °F 37.9 °F 96% 29.69 in 9.0 mi SE 5.8 mph - N/A   Overcast
1:08 AM 39.2 °F 35.0 °F 37.4 °F 93% 29.66 in 7.0 mi ESE 5.8 mph - N/A   Overcast
1:41 AM 39.2 °F 33.0 °F 37.4 °F 93% 29.63 in 10.0 mi ESE 9.2 mph - 0.00 in   Overcast
1:54 AM 39.9 °F 35.8 °F 39.0 °F 97% 29.65 in 10.0 mi ESE 5.8 mph - 0.00 in   Overcast
2:54 AM 42.1 °F 35.7 °F 39.9 °F 92% 29.60 in 10.0 mi ESE 11.5 mph - N/A   Overcast
3:54 AM 42.1 °F 39.2 °F 41.0 °F 96% 29.63 in 4.0 mi North 4.6 mph - 0.03 in Rain Rain
4:08 AM 44.6 °F 41.4 °F 42.8 °F 93% 29.63 in 10.0 mi West 5.8 mph - 0.01 in Rain Light Rain
4:54 AM 45.0 °F 38.9 °F 39.0 °F 80% 29.64 in 10.0 mi West 12.7 mph 19.6 mph 0.02 in   Overcast
5:54 AM 43.0 °F 38.8 °F 33.1 °F 68% 29.66 in 10.0 mi West 6.9 mph - 0.00 in Rain Light Rain
6:54 AM 39.9 °F 30.8 °F 28.0 °F 63% 29.70 in 10.0 mi NW 18.4 mph 25.3 mph 0.00 in Rain Light Rain
7:54 AM 36.0 °F 24.7 °F 25.0 °F 64% 29.75 in 10.0 mi NW 21.9 mph 29.9 mph 0.00 in   Overcast
8:54 AM 35.1 °F 22.7 °F 21.9 °F 59% 29.79 in 10.0 mi NW 25.3 mph 32.2 mph N/A   Overcast
9:54 AM 33.1 °F 20.1 °F 17.1 °F 52% 29.81 in 10.0 mi WNW 25.3 mph 34.5 mph N/A   Mostly Cloudy
10:54 AM 33.1 °F 20.3 °F 15.1 °F 48% 29.82 in 10.0 mi WNW 24.2 mph 38.0 mph N/A   Mostly Cloudy
11:54 AM 30.9 °F 17.5 °F 14.0 °F 50% 29.82 in 10.0 mi WNW 24.2 mph 39.1 mph N/A   Scattered Clouds
12:54 PM 30.9 °F 16.7 °F 10.9 °F 43% 29.81 in 10.0 mi WNW 27.6 mph 38.0 mph 0.00 in   Scattered Clouds
1:54 PM 30.9 °F 17.2 °F 10.9 °F 43% 29.82 in 10.0 mi WNW 25.3 mph 33.4 mph N/A   Scattered Clouds
2:54 PM 28.9 °F 16.1 °F 10.0 °F 45% 29.86 in 10.0 mi West 19.6 mph 27.6 mph N/A   Mostly Cloudy
3:54 PM 24.1 °F 8.3 °F 6.1 °F 46% 29.92 in 10.0 mi West 24.2 mph 33.4 mph N/A   Mostly Cloudy
4:54 PM 21.0 °F 3.9 °F 3.0 °F 46% 29.96 in 10.0 mi WNW 25.3 mph 35.7 mph N/A   Scattered Clouds
5:54 PM 16.0 °F -1.7 °F -4.0 °F 41% 30.01 in 10.0 mi WNW 21.9 mph 28.8 mph N/A   Scattered Clouds
6:54 PM 12.9 °F -8.6 °F -8.0 °F 39% 30.07 in 10.0 mi NW 31.1 mph 40.3 mph N/A   Partly Cloudy
7:54 PM 10.0 °F -11.9 °F -13.0 °F 35% 30.12 in 10.0 mi WNW 28.8 mph 41.4 mph N/A   Partly Cloudy
8:54 PM 8.1 °F -13.8 °F -14.1 °F 36% 30.15 in 10.0 mi WNW 26.5 mph 33.4 mph N/A   Partly Cloudy
9:54 PM 7.0 °F -12.6 °F -13.0 °F 40% 30.18 in 10.0 mi NW 19.6 mph 28.8 mph N/A   Partly Cloudy
10:54 PM 5.0 °F -17.1 °F -15.0 °F 39% 30.19 in 10.0 mi WNW 24.2 mph 40.3 mph N/A   Clear
11:54 PM 3.9 °F -12.2 °F -11.0 °F 50% 30.20 in 10.0 mi WNW 11.5 mph 21.9 mph N/A   Overcast